[[{"header":{"parameterUnit":"m.s-1","parameterCategory":1,"la1":30.2991,"la2":30.254,"lo1":-89.0895,"lo2":-89.0444,"dy":0.0017,"dx":0.0017,"nx":28,"ny":28,"refTime":"2025-09-09T09:00:00:Z","depth":0,"parameterNumber":2,"parameterNumberName":"U-component_of_WINDS"},"data":[0,0,0,0,0,0,0,0,0,0,0,0,0,0,0,0,0,0,0,0,0,0,0,0,0,0,0,0,0,0,0,0,0,0,0,0,0,0,0,0,0,0,0,0,0,0,0,0,0,0,0,0,0,0,0,0,0,0,-1.2795,-1.2795,0,-1.2802,-1.2802,-1.2802,-1.2731,-1.2729,-1.2727,-1.2726,-1.2736,-1.2738,-1.274,0,0,0,0,0,0,0,0,0,0,0,0,0,-1.2721,-1.2723,-1.2795,-1.2795,-1.2795,-1.2802,-1.2802,-1.2802,-1.2732,-1.2729,-1.2727,-1.2725,-1.2735,-1.2737,-1.274,0,0,0,0,0,0,0,0,0,0,0,0,0,-1.2743,-1.2723,-1.2795,-1.276,-1.2757,-1.2802,-1.2802,-1.2802,-1.2732,-1.2729,-1.2726,-1.2724,-1.2734,-1.2737,-1.274,-1.2819,0,0,-1.275,-1.2751,0,0,0,0,0,0,0,0,-1.2742,-1.2746,-1.2765,-1.2763,-1.2759,-1.2763,-1.278,-1.2808,-1.2733,-1.2742,-1.2726,-1.2722,-1.2747,-1.2749,-1.2757,-1.2819,-1.282,-1.275,-1.2752,-1.2753,-1.2754,0,0,0,0,0,0,0,-1.2741,-1.2745,-1.2798,-1.2766,-1.2762,-1.2745,-1.2745,-1.2785,-1.2761,-1.2741,-1.2736,-1.2737,-1.2745,-1.2754,-1.2757,-1.282,-1.275,-1.2753,-1.2755,-1.2756,-1.2949,-1.2952,0,0,0,0,0,0,-1.2743,-1.2745,-1.2797,-1.2798,-1.2743,-1.2749,-1.2749,-1.2765,-1.276,-1.2757,-1.274,-1.2734,-1.275,-1.2753,-1.2757,-1.285,-1.2753,-1.2756,-1.2758,-1.2946,-1.295,-1.2953,0,0,0,0,0,0,-1.2742,-1.2749,-1.2797,-1.277,-1.2775,-1.2753,-1.2772,-1.2766,-1.2775,-1.276,-1.2755,-1.2754,-1.2748,-1.2752,-1.2804,-1.2849,-1.2758,-1.2761,-1.2942,-1.2947,-1.2952,-1.3037,0,0,0,0,0,0,-1.274,-1.2749,-1.2778,-1.2771,-1.2776,-1.2844,-1.2774,-1.2769,-1.2781,-1.2773,-1.2771,-1.2768,-1.2746,-1.28,-1.2807,-1.2852,-1.2763,-1.2938,-1.2944,-1.295,-1.303,-1.3044,-1.3056,0,0,0,0,0,-1.2738,-1.2802,-1.278,-1.2786,-1.2812,-1.2847,-1.285,-1.2822,-1.2785,-1.2814,-1.2804,-1.2768,-1.2843,-1.2806,-1.2814,-1.286,-1.2935,-1.2943,-1.295,-1.3024,-1.3041,-1.3056,0,0,0,0,0,0,-1.2815,-1.28,-1.2776,-1.2839,-1.2844,-1.2834,-1.2871,-1.2841,-1.2858,-1.285,-1.2816,-1.2816,-1.2875,-1.2872,-1.2831,-1.2937,-1.2883,-1.2892,-1.2937,-1.2953,-1.2965,-1.2966,-1.2766,0,0,0,0,0,-1.2839,-1.2867,-1.2853,-1.291,-1.2914,-1.2893,-1.2906,-1.2885,-1.2889,-1.2892,-1.2885,-1.2892,-1.2917,-1.2935,-1.2957,-1.3029,-1.3028,-1.3065,-1.3078,-1.3088,-1.3097,-1.3137,-1.3154,-1.2977,-1.2977,-1.2977,0,0,-1.289,-1.2885,-1.2905,-1.2926,-1.2927,-1.2959,-1.2895,-1.293,-1.2954,-1.2897,-1.2946,-1.2942,-1.2947,-1.301,-1.3038,-1.301,-1.3146,-1.3098,-1.3107,-1.311,-1.3147,-1.3163,-1.3178,-1.2982,-1.2981,-1.2981,0,0,-1.2998,-1.2997,-1.3045,-1.3048,-1.3051,-1.3037,-1.3048,-1.3043,-1.3038,-1.3086,-1.3045,-1.3073,-1.3116,-1.3122,-1.3131,-1.3243,-1.3211,-1.3251,-1.332,-1.3359,-1.3373,-1.3385,-1.3427,-1.3442,-1.3259,-1.326,-1.326,0,-1.3061,-1.3105,-1.3073,-1.3112,-1.3123,-1.3073,-1.3122,-1.3127,-1.3138,-1.3147,-1.3116,-1.3171,-1.317,-1.3235,-1.3262,-1.3271,-1.3284,-1.3251,-1.3373,-1.3385,-1.3396,-1.3436,-1.3451,-1.3265,-1.3264,-1.3263,-1.3263,0,-1.3183,-1.3215,-1.3253,-1.3265,-1.328,-1.3324,-1.33,-1.3319,-1.3297,-1.3285,-1.3336,-1.3334,-1.3356,-1.3369,-1.3347,-1.3432,-1.3415,-1.3379,-1.3324,-1.3419,-1.3455,-1.347,-1.3272,-1.327,-1.3268,-1.3267,0,0,-1.3341,-1.3334,-1.3349,-1.3355,-1.3355,-1.3379,-1.3421,-1.3442,-1.346,-1.3469,-1.3505,-1.3544,-1.3511,-1.3521,-1.3499,-1.3534,-1.3625,-1.3494,-1.3493,-1.352,-1.372,-1.3748,-1.3766,-1.3603,-1.3606,-1.3608,-1.372,0,-1.3448,-1.3518,-1.3492,-1.3565,-1.3595,-1.3548,-1.3585,-1.359,-1.3581,-1.3606,-1.3595,-1.3624,-1.3578,-1.3584,-1.3616,-1.3607,-1.3665,-1.3598,-1.3638,-1.3639,-1.3639,-1.3784,-1.3814,-1.392,-1.3734,-1.3736,-1.3738,0,-1.3582,-1.3597,-1.3673,-1.367,-1.3681,-1.3715,-1.3732,-1.3756,-1.3761,-1.3752,-1.3764,-1.3735,-1.3778,-1.3722,-1.3781,-1.3737,-1.3751,-1.375,-1.3753,-1.3757,-1.3696,-1.3794,-1.3952,-1.3969,-1.376,-1.3758,-1.3756,0,-1.3692,-1.373,-1.3782,-1.3787,-1.3784,-1.3809,-1.3809,-1.3811,-1.3826,-1.3841,-1.3851,-1.3871,-1.3883,-1.39,-1.3878,-1.3839,-1.3942,-1.3883,-1.3937,-1.3938,-1.3962,-1.3961,-1.4127,-1.3968,-1.3968,-1.3968,-1.3968,0,-1.3815,-1.3864,-1.3831,-1.3863,-1.3917,-1.3886,-1.3941,-1.3935,-1.3938,-1.3969,-1.3929,-1.3959,-1.3928,-1.3955,-1.3938,-1.3991,-1.3996,-1.3992,-1.3987,-1.3996,-1.3997,-1.4006,-1.3999,-1.3972,-1.3971,-1.397,-1.397,0,-1.3947,-1.3927,-1.398,-1.3972,-1.3971,-1.4012,-1.4006,-1.4036,-1.4024,-1.4063,-1.4071,-1.4053,-1.4083,-1.4063,-1.4093,-1.4082,-1.4152,-1.4136,-1.415,-1.4147,-1.4202,-1.4198,-1.4381,-1.4404,-1.423,-1.4231,-1.4233,0,-1.4028,-1.4065,-1.4061,-1.4079,-1.4081,-1.411,-1.4124,-1.4095,-1.4113,-1.4122,-1.4151,-1.4178,-1.4198,-1.425,-1.424,-1.4264,-1.4249,-1.4312,-1.4253,-1.4262,-1.4253,-1.4252,-1.4256,-1.4324,-1.4326,-1.4328,-1.4329,0,-1.4175,-1.4163,-1.4185,-1.4205,-1.4223,-1.4237,-1.4248,-1.4265,-1.4235,-1.4257,-1.4287,-1.4303,-1.4334,-1.4363,-1.4383,-1.4383,-1.4353,-1.4348,-1.4362,-1.4373,-1.438,-1.4379,-1.4185,-1.4344,-1.4343,-1.4342,-1.4341,-1.434,-1.4285,-1.4316,-1.4319,-1.4345,-1.435,-1.4361,-1.4389,-1.4381,-1.4405,-1.4428,-1.441,-1.4447,-1.4452,-1.4476,-1.4481,-1.4511,-1.4485,-1.4505,-1.451,-1.4516,-1.4525,-1.4374,-1.4514,-1.4513,-1.4513,-1.4513,-1.4512,0,-1.4431,-1.4431,-1.4455,-1.4471,-1.4493,-1.446,-1.4471,-1.4491,-1.4524,-1.4531,-1.4552,-1.4588,-1.4615,-1.4608,-1.4633,-1.4658,-1.4645,-1.4666,-1.4664,-1.4666,-1.4545,-1.4531,-1.4676,-1.4676,-1.4676,-1.4676,-1.4676,-1.4676,-1.451,-1.4561,-1.455,-1.4604,-1.4603,-1.4638,-1.4647,-1.4658,-1.4664,-1.4706,-1.4728,-1.4722,-1.4724,-1.4749,-1.4773,-1.4771,-1.4783,-1.481,-1.4802,-1.469,-1.4674,-1.4658,-1.4646,-1.4812,-1.4812,-1.492,-1.4921,-1.4922]},{"header":{"parameterUnit":"m.s-1","parameterCategory":1,"la1":30.2991,"la2":30.254,"lo1":-89.0895,"lo2":-89.0444,"dy":0.0017,"dx":0.0017,"nx":28,"ny":28,"refTime":"2025-09-09T09:00:00:Z","depth":0,"parameterNumber":3,"parameterNumberName":"V-component_of_WINDS"},"data":[0,0,0,0,0,0,0,0,0,0,0,0,0,0,0,0,0,0,0,0,0,0,0,0,0,0,0,0,0,0,0,0,0,0,0,0,0,0,0,0,0,0,0,0,0,0,0,0,0,0,0,0,0,0,0,0,0,0,-0.7839,-0.784,0,-0.7902,-0.7903,-0.7904,-0.7952,-0.7952,-0.7953,-0.7953,-0.8013,-0.8014,-0.8015,0,0,0,0,0,0,0,0,0,0,0,0,0,-0.7754,-0.7755,-0.7839,-0.784,-0.784,-0.7902,-0.7903,-0.7904,-0.7952,-0.7952,-0.7953,-0.7953,-0.8013,-0.8014,-0.8016,0,0,0,0,0,0,0,0,0,0,0,0,0,-0.7801,-0.7755,-0.7839,-0.7872,-0.7876,-0.7902,-0.7903,-0.7904,-0.7951,-0.7952,-0.7953,-0.7953,-0.8012,-0.8014,-0.8016,-0.8013,0,0,-0.8021,-0.8022,0,0,0,0,0,0,0,0,-0.7798,-0.7804,-0.7866,-0.787,-0.7874,-0.792,-0.7895,-0.794,-0.7951,-0.7922,-0.7953,-0.7954,-0.7981,-0.7986,-0.7996,-0.8016,-0.8018,-0.8021,-0.8022,-0.8023,-0.8024,0,0,0,0,0,0,0,-0.7795,-0.7801,-0.7864,-0.7867,-0.7872,-0.7882,-0.7889,-0.7904,-0.7947,-0.7925,-0.7929,-0.7936,-0.7983,-0.7994,-0.7998,-0.8019,-0.8021,-0.8023,-0.8024,-0.8025,-0.8037,-0.8036,0,0,0,0,0,0,-0.7787,-0.7798,-0.7862,-0.7866,-0.7837,-0.7882,-0.7891,-0.7904,-0.7947,-0.7954,-0.7935,-0.7938,-0.7991,-0.7995,-0.8,-0.7998,-0.8023,-0.8025,-0.8026,-0.8038,-0.8037,-0.8036,0,0,0,0,0,0,-0.7785,-0.7792,-0.7859,-0.7833,-0.7842,-0.7883,-0.7898,-0.7905,-0.7916,-0.7955,-0.7962,-0.7938,-0.7991,-0.7997,-0.8009,-0.8001,-0.8026,-0.8027,-0.8038,-0.8037,-0.8036,-0.7994,0,0,0,0,0,0,-0.7782,-0.7791,-0.7792,-0.7833,-0.7844,-0.7869,-0.7897,-0.7906,-0.7919,-0.7923,-0.796,-0.7966,-0.7992,-0.8006,-0.8011,-0.8003,-0.8028,-0.8039,-0.8038,-0.8037,-0.7997,-0.7992,-0.7988,0,0,0,0,0,-0.7779,-0.7778,-0.7792,-0.78,-0.7846,-0.7869,-0.7875,-0.7906,-0.7919,-0.7919,-0.7943,-0.7965,-0.8001,-0.8007,-0.8012,-0.8006,-0.804,-0.8038,-0.8037,-0.7999,-0.7993,-0.7988,0,0,0,0,0,0,-0.7734,-0.7784,-0.78,-0.7812,-0.7836,-0.7877,-0.7878,-0.7899,-0.7919,-0.7921,-0.7958,-0.7965,-0.7973,-0.799,-0.7996,-0.8004,-0.8023,-0.8022,-0.7992,-0.7987,-0.7983,-0.7978,-0.803,0,0,0,0,0,-0.7726,-0.7742,-0.7783,-0.7789,-0.7801,-0.7837,-0.7848,-0.787,-0.7895,-0.7905,-0.7931,-0.7953,-0.7969,-0.7979,-0.7996,-0.7999,-0.8007,-0.7997,-0.7993,-0.7989,-0.7988,-0.7989,-0.7984,-0.803,-0.803,-0.8031,0,0,-0.7708,-0.7737,-0.7745,-0.7781,-0.7802,-0.7816,-0.7845,-0.7859,-0.7869,-0.7907,-0.792,-0.7939,-0.7966,-0.7973,-0.7977,-0.7988,-0.7976,-0.7987,-0.7983,-0.7985,-0.7986,-0.7982,-0.7978,-0.8029,-0.803,-0.803,0,0,-0.7683,-0.7707,-0.7714,-0.7735,-0.7766,-0.779,-0.7791,-0.7829,-0.7843,-0.7857,-0.7885,-0.7896,-0.7924,-0.7941,-0.7954,-0.7932,-0.7953,-0.7937,-0.7914,-0.7914,-0.791,-0.7907,-0.7898,-0.7895,-0.7936,-0.7935,-0.7935,0,-0.7657,-0.7681,-0.7715,-0.7727,-0.7741,-0.7776,-0.7782,-0.78,-0.7834,-0.7842,-0.7854,-0.7888,-0.7909,-0.7919,-0.7914,-0.7923,-0.7924,-0.7933,-0.7909,-0.7906,-0.7903,-0.7895,-0.7892,-0.7933,-0.7933,-0.7934,-0.7934,0,-0.7646,-0.7661,-0.7663,-0.7696,-0.771,-0.7719,-0.7752,-0.7762,-0.7782,-0.7804,-0.7815,-0.7841,-0.7863,-0.7867,-0.7887,-0.788,-0.7885,-0.7902,-0.7922,-0.7896,-0.7889,-0.7886,-0.793,-0.7931,-0.7931,-0.7932,0,0,-0.7596,-0.7647,-0.7647,-0.7661,-0.7698,-0.7709,-0.7718,-0.7741,-0.7747,-0.7769,-0.7776,-0.7798,-0.7813,-0.7827,-0.7848,-0.7849,-0.7828,-0.7865,-0.7866,-0.7856,-0.7819,-0.7806,-0.7802,-0.7841,-0.7841,-0.7841,-0.7817,0,-0.7576,-0.7596,-0.7626,-0.7635,-0.7648,-0.7681,-0.7688,-0.771,-0.7729,-0.7742,-0.7763,-0.7777,-0.7798,-0.7806,-0.7808,-0.783,-0.7821,-0.7832,-0.7846,-0.7847,-0.7838,-0.7799,-0.7785,-0.7761,-0.7814,-0.7814,-0.7814,0,-0.7556,-0.7576,-0.7587,-0.762,-0.7627,-0.7633,-0.7655,-0.7667,-0.7691,-0.7705,-0.772,-0.7743,-0.7751,-0.777,-0.7781,-0.7788,-0.7795,-0.7806,-0.7806,-0.7808,-0.7828,-0.7799,-0.7755,-0.7751,-0.781,-0.781,-0.781,0,-0.7516,-0.7547,-0.7557,-0.7568,-0.7608,-0.7611,-0.7627,-0.7652,-0.7663,-0.7681,-0.7688,-0.7706,-0.7716,-0.7729,-0.7755,-0.7766,-0.7763,-0.7784,-0.7773,-0.7772,-0.7771,-0.7771,-0.7727,-0.7776,-0.7776,-0.7777,-0.7777,0,-0.7491,-0.7496,-0.7539,-0.7545,-0.755,-0.7583,-0.7587,-0.7606,-0.7627,-0.7636,-0.7665,-0.7672,-0.7707,-0.7717,-0.7737,-0.7742,-0.7747,-0.7757,-0.7762,-0.7754,-0.7752,-0.7759,-0.7761,-0.7776,-0.7776,-0.7776,-0.7776,0,-0.7448,-0.7478,-0.7491,-0.7526,-0.7535,-0.7537,-0.7567,-0.7573,-0.7593,-0.7604,-0.7608,-0.764,-0.7653,-0.7681,-0.7702,-0.7715,-0.7715,-0.7725,-0.7707,-0.771,-0.7698,-0.7698,-0.7656,-0.7652,-0.7705,-0.7704,-0.7704,0,-0.743,-0.7434,-0.747,-0.7479,-0.7494,-0.7507,-0.7518,-0.7549,-0.7559,-0.7585,-0.7587,-0.7603,-0.7618,-0.7637,-0.7661,-0.7676,-0.7686,-0.767,-0.7689,-0.768,-0.7685,-0.7684,-0.7684,-0.7666,-0.7665,-0.7665,-0.7664,0,-0.7394,-0.7407,-0.7423,-0.7443,-0.7456,-0.7473,-0.7491,-0.7495,-0.753,-0.754,-0.7554,-0.7565,-0.7586,-0.76,-0.7619,-0.7634,-0.7654,-0.7658,-0.7656,-0.7648,-0.7637,-0.7642,-0.7695,-0.7659,-0.766,-0.766,-0.766,-0.7661,-0.7362,-0.7367,-0.7392,-0.7408,-0.7425,-0.7441,-0.7447,-0.7469,-0.7482,-0.7502,-0.7519,-0.7531,-0.7552,-0.758,-0.7593,-0.7601,-0.7612,-0.7609,-0.7609,-0.7607,-0.7603,-0.7636,-0.7605,-0.7605,-0.7605,-0.7605,-0.7606,0,-0.7326,-0.7344,-0.7358,-0.7383,-0.7394,-0.7413,-0.7433,-0.7441,-0.7452,-0.7471,-0.7484,-0.7499,-0.7513,-0.7537,-0.7553,-0.7555,-0.7564,-0.7558,-0.7557,-0.756,-0.7594,-0.7594,-0.7549,-0.7549,-0.755,-0.755,-0.755,-0.755,-0.7309,-0.7317,-0.7334,-0.7349,-0.7367,-0.738,-0.739,-0.7403,-0.7418,-0.7434,-0.7446,-0.7462,-0.7482,-0.7499,-0.7512,-0.7518,-0.7522,-0.7512,-0.7521,-0.7553,-0.7558,-0.7563,-0.7563,-0.7513,-0.7513,-0.7487,-0.7487,-0.7486]}]]